W5MAI Weather Reports


Display with metric or nautical units.
time (UTC)temp
F
wind
direction
speed
MPH
gust
MPH
rain 1hr
in
rain 24hr
in
rain mn
in
humidity
%
barometer
mb
20260505124337 70 165 4.0 8.0 0.00 0.00 0.00 90 1010.1
20260505123411 70 254 3.0 10.0 0.00 0.00 0.00 90 1010.0
20260505122335 69 234 2.0 9.0 0.00 0.00 0.00 90 1009.8
20260505121406 69 217 3.0 8.0 0.00 0.00 0.00 90 1009.7
20260505120328 69 187 3.0 7.0 0.00 0.00 0.00 90 1009.5
20260505115347 69 153 2.0 7.0 0.00 0.00 0.00 90 1009.5
20260505114415 69 212 5.0 10.0 0.00 0.00 0.00 90 1009.5
20260505113329 69 186 4.0 11.0 0.00 0.00 0.00 90 1009.4
20260505112410 69 246 5.0 11.0 0.00 0.00 0.00 90 1009.4
20260505111343 69 203 3.0 9.0 0.00 0.00 0.00 90 1009.3
20260505110346 69 215 3.0 11.0 0.00 0.00 0.00 90 1009.2
20260505100337 69 196 3.0 8.0 0.00 0.00 0.00 89 1009.7
20260505095338 69 161 2.0 9.0 0.00 0.00 0.00 89 1009.5
20260505094412 69 176 4.0 11.0 0.00 0.00 0.00 89 1009.6
20260505093329 69 166 4.0 9.0 0.00 0.00 0.00 89 1009.6
20260505092355 70 238 6.0 12.0 0.00 0.00 0.00 89 1009.6
20260505091421 70 178 6.0 12.0 0.00 0.00 0.00 89 1009.7
20260505090325 70 169 5.0 11.0 0.00 0.00 0.00 89 1009.8
20260505085354 70 158 4.0 10.0 0.00 0.00 0.00 89 1009.8
20260505084350 70 169 5.0 10.0 0.00 0.00 0.00 89 1009.8
20260505083421 70 240 5.0 11.0 0.00 0.00 0.00 89 1010.0
20260505082350 70 199 5.0 10.0 0.00 0.00 0.00 88 1010.0
20260505081349 70 150 3.0 12.0 0.00 0.00 0.00 88 1010.1
20260505080415 70 178 4.0 10.0 0.00 0.00 0.00 88 1010.2
20260505075343 70 163 5.0 10.0 0.00 0.00 0.00 88 1010.4
20260505074404 70 180 5.0 10.0 0.00 0.00 0.00 88 1010.4
20260505073329 70 223 2.0 12.0 0.00 0.00 0.00 88 1010.6
20260505072338 70 189 5.0 11.0 0.00 0.00 0.00 87 1010.7
20260505071359 70 221 6.0 10.0 0.00 0.00 0.00 87 1010.8
20260505070331 70 156 4.0 12.0 0.00 0.00 0.00 87 1011.0
20260505065341 70 218 6.0 11.0 0.00 0.00 0.00 87 1011.2
20260505064323 70 169 6.0 14.0 0.00 0.00 0.00 86 1011.4
20260505063332 71 176 6.0 15.0 0.00 0.00 0.00 86 1011.5
20260505062336 71 157 6.0 11.0 0.00 0.00 0.00 86 1011.6
20260505061328 71 248 5.0 10.0 0.00 0.00 0.00 86 1011.4
20260505060333 71 180 5.0 11.0 0.00 0.00 0.00 86 1011.6
20260505055338 71 178 4.0 13.0 0.00 0.00 0.00 86 1011.6
20260505054351 71 182 9.0 17.0 0.00 0.00 0.00 86 1011.6
20260505053334 71 153 5.0 14.0 0.00 0.00 0.00 85 1011.6
20260505052333 71 207 7.0 17.0 0.00 0.00 0.00 85 1011.6
20260505051325 71 193 6.0 11.0 0.00 0.00 0.00 85 1011.6
20260505050328 71 168 4.0 11.0 0.00 0.00 0.00 85 1011.6
20260505041331 72 186 5.0 10.0 0.00 0.00 0.00 84 1011.5
20260505040355 72 175 4.0 9.0 0.00 0.00 0.00 83 1011.5
20260505035359 72 183 2.0 7.0 0.00 0.00 0.00 82 1011.5
20260505034410 72 146 3.0 9.0 0.00 0.00 0.00 82 1011.3
20260505033333 72 177 3.0 7.0 0.00 0.00 0.00 82 1011.3
20260505025340 72 180 1.0 4.0 0.00 0.00 0.00 80 1011.1
20260505024408 73 164 0.0 2.0 0.00 0.00 0.00 80 1011.3
20260505023345 73 164 0.0 2.0 0.00 0.00 0.00 79 1011.3
20260505022408 73 164 0.0 2.0 0.00 0.00 0.00 78 1011.2
20260505021342 74 164 0.0 2.0 0.00 0.00 0.00 77 1011.2
20260505020351 74 164 0.0 2.0 0.00 0.00 0.00 76 1011.0
20260505015419 74 164 0.0 3.0 0.00 0.00 0.00 75 1010.9
20260505014330 75 171 1.0 5.0 0.00 0.00 0.00 74 1010.9
20260505013401 75 159 1.0 5.0 0.00 0.00 0.00 73 1010.9
20260505012333 76 160 1.0 6.0 0.00 0.00 0.00 71 1011.0
20260505011403 76 157 1.0 3.0 0.00 0.00 0.00 71 1010.9
20260505010324 77 179 2.0 5.0 0.00 0.00 0.00 69 1010.7
20260505004348 78 180 6.0 11.0 0.00 0.00 0.00 67 1010.8
20260505003403 78 155 7.0 11.0 0.00 0.00 0.00 66 1010.6
20260505002326 79 196 4.0 11.0 0.00 0.00 0.00 65 1010.6
20260505001401 79 178 5.0 12.0 0.00 0.00 0.00 64 1010.6
20260505000415 79 142 5.0 10.0 0.00 0.00 0.00 64 1010.5
20260504235355 79 180 5.0 12.0 0.00 0.00 0.00 64 1010.8
20260504234416 80 184 5.0 14.0 0.00 0.00 0.00 63 1010.9
20260504233327 80 204 3.0 14.0 0.00 0.00 0.00 64 1011.0
20260504232342 80 215 7.0 13.0 0.00 0.00 0.00 63 1011.2
20260504231407 79 172 6.0 12.0 0.00 0.00 0.00 63 1011.4
20260504230343 79 150 7.0 14.0 0.00 0.00 0.00 63 1011.5
20260504225344 80 208 4.0 15.0 0.00 0.00 0.00 63 1011.5
20260504224405 80 192 7.0 14.0 0.00 0.00 0.00 63 1011.8
20260504223421 80 207 5.0 16.0 0.00 0.00 0.00 64 1011.9
20260504222329 80 194 5.0 15.0 0.00 0.00 0.00 63 1012.0
20260504221401 79 207 5.0 11.0 0.00 0.00 0.00 64 1012.0
20260504220422 80 224 7.0 17.0 0.00 0.00 0.00 63 1011.9
20260504215347 80 198 6.0 12.0 0.00 0.00 0.00 63 1011.9
20260504214417 79 133 5.0 12.0 0.00 0.00 0.00 64 1012.0
20260504213342 79 165 6.0 14.0 0.00 0.00 0.00 63 1012.0
20260504212418 79 219 6.0 17.0 0.00 0.00 0.00 64 1012.2
20260504211331 80 269 7.0 12.0 0.00 0.00 0.00 63 1012.4
20260504210405 79 135 6.0 13.0 0.00 0.00 0.00 64 1012.7
20260504205325 79 187 6.0 11.0 0.00 0.00 0.00 64 1013.0
20260504203358 79 188 8.0 14.0 0.00 0.00 0.00 64 1013.2
20260504202416 79 169 6.0 15.0 0.00 0.00 0.00 64 1013.3
20260504201340 79 180 4.0 14.0 0.00 0.00 0.00 65 1013.4
20260504200420 79 201 6.0 12.0 0.00 0.00 0.00 63 1013.5
20260504193404 79 200 9.0 14.0 0.00 0.00 0.00 63 1013.9
20260504192334 79 192 7.0 15.0 0.00 0.00 0.00 62 1013.8
20260504191413 79 161 8.0 15.0 0.00 0.00 0.00 64 1014.1
20260504190329 79 205 6.0 11.0 0.00 0.00 0.00 63 1014.2
20260504185354 79 232 4.0 17.0 0.00 0.00 0.00 63 1014.3
20260504184422 79 200 8.0 14.0 0.00 0.00 0.00 62 1014.3
20260504183341 79 210 7.0 13.0 0.00 0.00 0.00 63 1014.7
20260504182343 79 173 7.0 14.0 0.00 0.00 0.00 63 1014.9
20260504181411 78 229 8.0 14.0 0.00 0.00 0.00 64 1015.0
20260504180326 77 173 6.0 14.0 0.00 0.00 0.00 65 1015.0
20260504175350 77 196 7.0 15.0 0.00 0.00 0.00 65 1015.2
20260504174417 77 173 8.0 16.0 0.00 0.00 0.00 66 1015.2
20260504172348 76 213 6.0 14.0 0.00 0.00 0.00 67 1015.3
20260504171400 75 234 7.0 15.0 0.00 0.00 0.00 69 1015.7
20260504170332 74 254 5.0 16.0 0.00 0.00 0.00 71 1015.8
20260504150329 68 209 6.0 10.0 0.00 0.00 0.00 80 1016.8
20260504141324 66 194 6.0 14.0 0.00 0.00 0.00 81 1016.6